Погода в Аинази

Погода в Аинази : погода сейчас, прогноз погоды и архив. Всё, что Вы хотите узнать о погоде в Аинази!

Поиск расширенной информации на нашем сайте:

Другие новости

Новости СМИ2

Главная страница сайта

Новости сайта

03.07.2017

Напоминаем, что на нашем специализированном сайте Метеоцентр.Азия вы можете получить высокодетализированные автоматические прогнозы погоды по пунктам России, СНГ и мира в авиационном формате (включающие направление и скорость ветра, видимость, явления погоды, количество и форму облачности, нижнюю и верхнюю границу облачности).

Рекомендуем: по низкой цене: продажа офиса в башне Город Столиц на пресненской набережной на выгодных условиях

Погода в Аинази - сегодня

Время (UTC), дата Ветер
(°,м/с) 
Видим.   Явления Облачность Т
(°С)
Тd
(°С)
f(%) Тe
(°С)
Pmin
(гПа)
dP
(гПа)
Po
(мм)
O2
(г/м3)
Тmin Tmax R s Состояние
почвы
00 04.02.18 350 (С) 1-1  н/о    н/о 
-1.1 -3.4 84 -1  1013.8  760  308           
09 04.02.18 060 (СВ) 7-11  н/о    н/о 
-5.4 -10 70 -10  1019.6  764  315           
21 04.02.18 020 (С) 7-9  н/о    н/о 
-5.7 -8.5 81 -11  1024.7  0.7  768  317           
12 06.02.18 170 (Ю) 4-6  н/о    н/о 
-5.6 -7.3 88 -9  1010.7  -0.8  757  312           
21 06.02.18 250 (З) 3-5  н/о    н/о 
-2.6 -5.7 79 -5  1010.6  757  309           
00 07.02.18 260 (З) 4-6  н/о    н/о 
-2.6 -3.5 94 -5  1011.3  0.7  758  309           
03 07.02.18 250 (З) 5-9  н/о    н/о 
-1.8 -3.7 87 -5  1012.2  759  308           
18 07.02.18 210 (ЮЗ) 6-8  н/о    н/о 
-0.6 -2.6 86 -4  1018.9  764  309           
09 09.02.18 120 (ЮВ) 2-2  н/о    н/о 
-7.2 -8 94 -9  1023.2  0.5  767  318           
12 09.02.18 080 (В) 3-4  н/о    н/о 
-7.6 -8.4 94 -10  1023.4  767  319           
09 22.02.18 140 (ЮВ) 1-1  н/о    н/о 
-10.1 -12.5 83 -10  1032.3  774  325           
06 25.04.18 220 (ЮЗ) 5-8  н/о    н/о 
+5.7 +5.3 97 +4  1000.1  0.5  749  295           
18 29.04.18 070 (В) 2-3  н/о    н/о 
+11.4 +7.6 77 +12  1011.6  0.2  758  292           
21 06.05.18 280 (З) 2-2  н/о    н/о 
+11.2 +4.7 64 +11  1025.3  768  297           
15 21.05.18 330 (СЗ) 3-4  н/о    н/о 
+20.2 +8.3 46 +20  1026.6  -1.8  769  287           
15 06.06.18 280 (З) 6-10  н/о    н/о 
+11.7 +6.6 71 +10  1018.8  764  294           
15 14.06.18 280 (З) 2-5  н/о    н/о 
+18.3 +10.9 62 +21  1012.5  -0.3  759  285           
12 04.07.18 280 (З) 4-5  н/о    н/о 
+14.9 +13.4 91 +21  1008.3  0.3  756  286           
00 24.07.18 070 (В) 1-2  н/о    н/о 
+17.6 +17.3 98 +32  1012.2  0.2  759  283           
15 05.09.18 040 (СВ) 3-4  н/о    н/о 
+17.6 +16.2 92 +28  1018.9  764  286           
21 06.09.18 110 (В) 2-4  н/о    н/о 
+18.2 +15.8 86 +29  1016.5  0.2  762  284           
15 07.09.18 100 (В) 3-4  н/о    н/о 
+24.9 +14.1 51 +32  1015.9  761  278           
15 10.09.18 330 (СЗ) 2-3  н/о    н/о 
+18.9 +13.2 69 +25  1021.2  -0.6  765  286           
18 10.09.18 090 (В) 1-1  н/о    н/о 
+14.3 +13.8 97 +22  1020.8  -0.4  765  290           
00 14.09.18 230 (ЮЗ) 5-8  н/о    н/о 
+15.1 +10.5 74 +17  1016.3  -0.5  762  289           
Время (UTC), дата Ветер
(°,м/с) 
Видим.   Явления Облачность Т
(°С)
Тd
(°С)
f(%) Тe
(°С)
Pmin
(гПа)
dP
(гПа)
Po
(мм)
O2
(г/м3)
Тmin Tmax R s Состояние
почвы

Для получения пояснительной информации подведите курсор к названию столбца.

ПОГОДА в Аинази - архив

Всё, что Вы хотите узнать о погоде в Аинази - удобно и подробно!

Выберите нужную дату (начиная с 1 января 2015* года) и нажмите кнопку "Найти".
Будут отображены архивные сводки погоды по пункту Аинази, начиная с указанной даты.


Отображать данные в формате CSV (для использования в таблицах Excel)


Внимание! Наш архив погоды предназначен исключительно для личного некоммерческого использования в познавательных целях. Если Вам необходимы официальные справки о состоянии погоды (для производственных, юридических, коммерческих и т.п. целей), обращайтесь в органы Росгидромета.

*Примечание: данная дата относится к архиву по метеостанциям СССР (Россия, СНГ, Балтия).
Архив по метеостанциям Зарубежной Европы и Азии (кроме Китая) хранится 10 дней, по другим регионам земного шара (Китай, Африка, Америка, Австралия, Океания) - 1 день.

Аинази - район местоположения метеостанции


Название, широта, долгота, высота метеостанции:
Аинази 57.9°ш. 24.4°д. 5 м над ур. моря [Латвия]

Дополнительная информация

В oтличие oт бoльшинства пoгoдных сайтoв мы публикуем пoдрoбную метеoинфoрмацию в детальнoм прoфессиoнальнoм фoрмате.

Характеристики температуры и влажнoсти вoздуха измеряются на высoте 2 м в тени вдали oт зданий и деревьев.
Скoрoсть ветра измеряется на высoте 10 м (на урoвне рoста челoвека скoрoсть ветра ниже в 1.5-2 раза). Если метеoстанция нахoдится в гoрoде или в лесу, тo скoрoсть ветра занижена на 2-4 м/с пo сравнению с oткрытым местoм. Скoрoсть ветра над акватoриями крупных рек и oзёр, а также на вершинах хoлмoв на 2-5 м/с выше, чем в oбычных услoвиях.
Атмoсфернoе давление в разных тoчках местнoсти мoжет значительнo oтличаться oт давления на метеoстанции, в зависимoсти oт услoвий рельефа (при пoдъёме на 10 м давление пoнижается примернo на 1 мм рт.ст.).